Location: Gidding
(52.4333°N, 0.3500°W)
Time: 18:44:54
(UTC+00:00)

Cosmos 2219 - Pass Details

Date: 11 December 2025
Orbit: 834 x 857 km, 71.1° (Epoch: 20 May)

Event Time Altitude Azimuth Distance (km) Brightness Sun altitude
Rises 16:26:56 0° 328° (NNW) 3,426 6.4 -5.8°
Reaches altitude 10° 16:29:50 10° 342° (NNW) 2,491 5.5 -6.1°
Maximum altitude 16:34:32 26° 37° (NE) 1,645 4.2 -6.8°
Drops below altitude 10° 16:39:15 10° 93° (E) 2,491 5.1 -7.4°
Sets 16:42:08 0° 106° (ESE) 3,425 5.9 -7.8°
